Tracking 20040 objects as of 18-Nov-2019
Live streaming from Space Station
objects crossing your sky now

WESTAR 5

Track WESTAR 5 now!
WESTAR 5 is classified as:


NORAD ID: 13269
Int'l Code: 1982-058A
Perigee: 36,026.4 km
Apogee: 36,157.4 km
Inclination: 15.2 °
Period: 1,451.4 minutes
Semi major axis: 42462 km
RCS: 3.0486 m2 (large)
Launch date: June 9, 1982
Source: United States (US)
Launch site: AIR FORCE EASTERN TEST RANGE (AFETR)
aabbcc
Your satellite tracking list
Your tracking list is empty




NASA's NSSDC Master Catalog

Two Line Element Set (TLE):
1 13269U 82058A   19321.45387282 -.00000304 +00000-0 +00000-0 0  9997
2 13269 015.1778 356.3965 0015427 226.1471 131.1961 00.99217479095689
Source of the keplerian elements: AFSPC